Location: Shell Point
(30.0571°N, 84.2896°W)
Time: 08:00:07
(UTC-04:00)

Daily predictions for brighter satellites

Satellite Brightness Start Highest point End
(mag) Time Altitude Azimuth Time Altitude Azimuth Time Altitude Azimuth
Cosmos 2227 4.5 20:22:47 10° N 20:28:16 51° ENE 20:33:47 10° SE
ALOS 2.3 20:23:41 10° SSE 20:28:20 89° E 20:33:02 10° NNW
Cosmos 1954 Rocket 4.4 20:24:29 10° N 20:29:38 48° ENE 20:34:44 10° SE
Cosmos 1975 Rocket 3.0 20:25:25 10° N 20:29:52 74° E 20:34:14 10° S
NOSS 2-3 (D) 3.7 20:25:31 10° SSW 20:30:03 83° ESE 20:35:02 10° NNE
NOAA 12 4.4 20:25:10 10° S 20:30:25 73° WSW 20:35:38 10° NNW
FENGYUN 3A 3.7 20:25:12 10° SSE 20:30:34 86° ENE 20:35:56 10° N
USA 267 4.2 20:25:02 10° E 20:30:45 33° NE 20:36:28 10° NNW
Cosmos 1812 3.3 20:29:00 10° NNW 20:32:50 64° W 20:36:38 10° S
ASTRO E2 3.8 20:31:59 10° SSW 20:35:23 27° SSE 20:38:47 10° E
Resurs 01 Rocket 2.7 20:36:08 10° SE 20:39:50 26° ENE 20:43:33 10° NNE
Cosmos 2151 Rocket 3.7 20:35:59 10° S 20:40:16 55° E 20:44:33 10° NNE
Envisat 4.3 20:40:26 10° ESE 20:44:16 22° ENE 20:48:06 10° NNE
Cosmos 1602 3.6 20:41:27 10° S 20:45:16 77° E 20:49:06 10° N
Abrixas 2.1 20:42:57 10° SW 20:45:30 55° SE 20:48:03 10° ENE
DELTA 2 R/B (1) 3.6 20:40:54 10° WNW 20:46:31 87° NNE 20:51:50 12° ESE
Cosmos 2263 Rocket 3.3 20:43:27 10° N 20:48:10 26° ENE 20:52:22 12° ESE
Cosmos 2322 Rocket 2.5 20:43:48 10° SSW 20:49:28 74° WNW 20:55:11 10° NNE
Lacrosse 5 2.6 20:45:44 10° SW 20:50:43 56° NW 20:55:43 10° NNE
Cosmos 1536 Rocket 4.1 20:50:11 10° NNE 20:54:12 37° E 20:58:13 10° SSE
Atlas Centaur 2 3.1 20:46:59 10° W 20:55:37 83° S 21:02:22 15° ESE
ATLAS 2AS CENTAUR R/B 3.0 20:48:19 10° SSW 20:55:46 87° ESE 21:03:50 10° NNE
SL-16 R/B 3.1 20:57:38 10° SW 21:03:08 54° WNW 21:08:42 10° N
Helios 1B rocket 4.0 21:05:57 10° NE 21:08:10 17° E 21:08:10 17° E
FALCON 9 R/B 3.8 21:07:22 10° SSE 21:19:39 - ENE 21:10:17 17° SE
Meteor 1-11 Rocket 3.8 21:04:53 10° S 21:10:44 86° W 21:16:30 10° N
Centaur AC-116 3.8 21:02:03 10° WSW 21:10:54 42° S 21:12:36 23° ESE
Cosmos 1110 Rocket 4.0 21:07:43 10° S 21:12:44 55° ESE 21:17:46 10° NNE
GPS 2-05 Rocket1 3.1 21:12:28 10° WNW 21:15:51 54° NNE 21:17:20 28° E
Cosmos 2322 3.7 21:11:06 10° S 21:16:34 55° ESE 21:22:06 10° NNE
SJ-6B 4.3 21:12:56 10° S 21:16:44 40° W 21:20:36 10° NNW
Delta 2 Rocket 4.3 21:15:37 10° WNW 21:19:15 41° N 21:22:33 14° ENE
Cosmos 2360 Rocket 2.1 21:15:09 10° SSW 21:20:46 78° ESE 21:26:24 10° NNE
Cosmos 1331 Rocket 3.9 21:18:44 10° S 21:23:49 63° ESE 21:28:57 10° NNE
SeaSat 1 2.3 21:20:12 10° NNE 21:25:07 71° ESE 21:30:01 10° SSW
OPS 6432 4.5 21:20:47 10° SSW 21:25:08 74° ESE 21:28:27 10° NNE
Meteor 1-23 Rocket 4.4 21:23:20 10° N 21:28:43 49° E 21:31:39 25° SE
COSMOS 2428 3.2 21:24:32 10° SSE 21:29:42 36° ESE 21:34:53 10° NE
Cosmos 1850 Rocket 3.9 21:26:21 10° NNW 21:31:41 86° ENE 21:35:26 20° SSE
Resurs 1-3 3.8 21:31:03 12° S 21:35:05 71° W 21:39:28 10° NNW
Meteosat 1 Rocket2 3.5 21:31:20 10° W 21:35:54 75° S 21:38:59 31° E
Cosmos 220 Rocket 4.1 21:37:08 10° N 21:41:23 54° ENE 21:42:04 48° ESE
Meteor 1-5 Rocket 4.2 21:37:10 10° SSW 21:42:30 75° W 21:47:48 10° N
USA 186 3.1 21:45:51 21° SSW 21:47:38 39° W 21:50:50 10° NNW
Cosmos 1536 4.4 21:44:07 10° SSW 21:47:52 36° W 21:51:38 10° NNW
Cosmos 883 Rocket 4.3 21:41:46 10° N 21:47:55 74° E 21:51:30 26° SSE
Cosmos 2333 4.3 21:42:40 10° S 21:48:07 49° ESE 21:53:31 10° NNE
Okean 1 Rocket 3.6 21:45:41 10° SSW 21:49:56 58° W 21:54:16 10° N
Cosmos 1025 Rocket 3.2 21:46:47 10° N 21:50:37 49° ENE 21:50:37 49° ENE
Cosmos 1607 3.9 21:45:25 10° NNW 21:51:53 76° ENE 21:54:25 39° SE
Cosmos 1939 Rocket 2.7 21:51:35 67° SSE 21:52:06 86° ENE 21:56:02 10° N
Lacrosse 5 rocket 4.0 21:51:15 10° W 21:52:42 12° WSW 21:54:11 10° SW
Spot 2 Rocket 4.2 21:48:53 12° S 21:53:30 52° W 21:58:27 10° NNW
Cosmos 1244 Rocket 4.4 21:53:50 35° SSE 21:56:21 59° E 22:02:22 10° NNE
Tiangong 1 3.1 21:56:42 10° NW 21:58:00 23° NNW 21:58:00 23° NNW
USA 238 DEB 4.4 21:52:58 10° NNW 21:59:33 39° NE 22:01:04 35° E
USA 238 4.4 21:53:04 10° NNW 21:59:39 39° NE 22:01:09 35° E
Meteor 2-4 Rocket 4.4 21:54:37 10° NNW 22:00:08 55° W 22:05:05 13° SSW
Helios 1A 3.2 22:01:07 55° NE 22:01:07 55° NE 22:04:48 10° N
Cosmos 1818 3.5 21:59:26 10° SSW 22:04:51 84° WNW 22:10:18 10° NNE
ERS-1 Rocket 3.8 22:06:58 36° NE 22:06:58 36° NE 22:10:43 10° N
YAOGAN 6 3.7 22:10:08 40° NNW 22:10:08 40° NNW 22:12:30 10° NNW
ATLAS 3B R/B 2.8 22:02:41 10° NNW 22:09:08 51° ENE 22:09:58 48° E
Cosmos 1238 Rocket 4.3 22:04:13 10° N 22:10:05 45° ENE 22:10:05 45° ENE
ARGOS 4.3 22:12:31 29° NE 22:12:31 29° NE 22:16:01 10° N
Skynet4D Del rocket 4.4 22:05:47 10° W 22:12:36 46° SSW 22:13:29 44° S
USA 267 3.6 22:10:53 36° S 22:13:27 58° SW 22:19:54 10° NW
ASTRO E2 4.0 22:11:42 10° WSW 22:14:09 36° WSW 22:14:09 36° WSW
Resurs 01 Rocket 4.0 22:12:56 10° SW 22:16:13 20° W 22:19:30 10° NW
Okean 1-7 Rocket 3.7 22:12:47 10° N 22:16:59 73° NW 22:16:59 73° NW
Cosmos 2263 Rocket 3.6 22:27:01 10° NW 22:32:01 33° WSW 22:34:05 25° SW
Aureole 3 Rocket 4.1 22:25:12 10° N 22:31:40 60° NE 22:31:40 60° NE
Cosmos 1844 Rocket 3.6 22:32:56 10° N 22:36:49 38° NNE 22:36:49 38° NNE
Cosmos 2278 Rocket 4.3 22:36:36 10° NNE 22:38:10 15° NNE 22:38:10 15° NNE
H-2A R/B 3.8 22:46:54 23° NNE 22:46:54 23° NNE 22:48:52 10° N
Atlas Centaur 2 3.3 22:37:27 10° W 22:45:00 45° SSW 22:45:00 45° SSW
Cosmos 2219 Rocket 3.1 22:50:02 42° N 22:50:02 42° N 22:53:46 10° NNE
Cosmos 1745 Rocket 4.4 22:50:54 52° N 22:50:54 52° N 22:55:24 10° N
NOSS 3-4 (A) 3.8 22:51:35 10° SW 22:57:45 60° WNW 23:04:02 10° NNE
NOSS 3-4 (C) 3.8 22:51:41 10° SW 22:57:51 61° WNW 23:04:10 10° NNE
Cosmos 2333 Rocket 4.0 23:29:06 26° NNW 23:29:06 26° NNW 23:31:51 10° N
